Date String (YYYY-MM-DD hh:mm:ss) UTC,Instrument flags,absolute air pressure of the measurement (hPa),sample flow rate (lpm),inlet stack bypass flow (lpm),air temperature of the measurement (°C),ambient temperature measured by the external sensor (°C),aerosol sample conditioner tube jacket temperature (°C),OPC LED temperature (°C),internal box temperature (°C),relative humidity of the measurement (%),span deviation,mass concentration of particles derived from Lorenz-Mie calculation of OPC scattering (μg/m³),mass concentration of particles derived from Lorenz-Mie calculation of OPC scattering (μg/m³),mass concentration of particles derived from Lorenz-Mie calculation of OPC scattering (μg/m³)
DateTimeUTC,F1_M11,P_M11,Q1_M11,Q2_M11,T1_M11,T2_M11,T3_M11,T4_M11,T5_M11,U1_M11,ZSPAN_M11,X0_M11,X2_M11,X1_M11
2023-09-11 18:00:00,SystemResetWarning,0838.2,4.99,000.00,029.0,026.7,000.0,037.5,030.4,31.9,-001.6,0011.60,0006.79,0006.20
2023-09-11 18:01:00,SystemResetWarning,0838.2,5.00,000.00,029.0,026.9,000.0,037.5,030.4,31.7,-001.4,0011.60,0006.79,0006.18
2023-09-11 18:02:00,SystemResetWarning,0838.2,5.00,000.00,029.0,027.1,000.0,037.5,030.5,31.3,-001.3,0011.34,0006.74,0006.16
2023-09-11 18:03:00,SystemResetWarning,0838.2,5.00,000.00,029.0,027.3,000.0,037.5,030.5,30.9,-001.4,0011.18,0006.68,0006.15
2023-09-11 18:04:00,SystemResetWarning,0838.2,5.01,000.00,029.0,027.4,000.0,037.5,030.6,30.7,-001.3,0011.16,0006.67,0006.14
2023-09-11 18:05:00,SystemResetWarning,0838.2,5.00,000.00,029.0,027.5,000.0,037.4,030.6,31.2,-001.1,0011.11,0006.64,0006.12
2023-09-11 18:06:00,SystemResetWarning,0838.2,4.99,000.00,029.0,027.6,000.0,037.4,030.7,31.2,-000.9,0010.82,0006.63,0006.10
2023-09-11 18:07:00,SystemResetWarning,0838.2,5.00,000.00,029.1,027.7,000.0,037.4,030.7,31.3,-000.7,0010.65,0006.63,0006.09
2023-09-11 18:08:00,SystemResetWarning,0838.2,4.99,000.00,029.1,027.7,000.0,037.4,030.8,30.7,-000.7,0010.54,0006.60,0006.08
2023-09-11 18:09:00,SystemResetWarning,0838.2,5.00,000.00,029.1,027.8,000.0,037.4,030.8,31.5,-000.7,0009.90,0006.56,0006.08
2023-09-11 18:10:00,SystemResetWarning,0838.2,5.01,000.00,029.1,027.8,000.0,037.5,030.8,31.0,-000.4,0009.84,0006.55,0006.09
2023-09-11 18:11:00,SystemResetWarning,0838.2,5.01,000.00,029.2,027.9,000.0,037.5,030.8,31.1,-000.2,0009.85,0006.53,0006.11
2023-09-11 18:12:00,SystemResetWarning,0838.2,5.00,000.00,029.2,027.9,000.0,037.5,030.9,30.8,-000.1,0009.99,0006.59,0006.15
2023-09-11 18:13:00,SystemResetWarning,0838.2,5.00,000.00,029.2,028.0,000.0,037.5,030.9,31.2,0000.0,0010.14,0006.64,0006.19
2023-09-11 18:14:00,SystemResetWarning,0838.2,4.99,000.00,029.2,028.0,000.0,037.5,030.9,31.4,0000.1,0010.19,0006.67,0006.22
2023-09-11 18:15:00,SystemResetWarning,0838.2,4.99,000.00,029.2,028.0,000.0,037.5,030.9,31.1,-000.1,0010.18,0006.69,0006.25
2023-09-11 18:16:00,SystemResetWarning,0838.2,5.00,000.00,029.3,028.0,000.0,037.5,031.0,30.8,-000.2,0010.13,0006.70,0006.29
2023-09-11 18:17:00,SystemResetWarning,0838.1,5.01,000.00,029.3,028.1,000.0,037.5,031.0,30.4,-000.0,0010.13,0006.73,0006.33
2023-09-11 18:18:00,SystemResetWarning,0838.2,5.01,000.00,029.3,028.1,000.0,037.6,031.0,30.6,-000.3,0010.21,0006.78,0006.38
2023-09-11 18:19:00,SystemResetWarning,0838.1,5.00,000.00,029.3,028.1,000.0,037.6,031.0,31.2,-000.4,0010.73,0006.82,0006.42
2023-09-11 18:20:00,SystemResetWarning,0838.1,5.00,000.00,029.3,027.5,000.0,037.5,030.9,31.2,-001.0,0011.20,0006.85,0006.46
2023-09-11 18:21:00,SystemResetWarning,0837.9,4.98,000.00,029.3,025.6,000.0,037.4,030.5,31.8,-001.4,0011.28,0006.92,0006.52
2023-09-11 18:22:00,SystemResetWarning,0838.0,5.01,000.00,029.1,024.4,000.0,037.4,030.3,31.6,-001.8,0011.25,0006.94,0006.54
2023-09-11 18:23:00,SystemResetWarning,0838.0,5.01,000.00,029.0,024.3,000.0,037.3,030.1,32.1,-001.8,0011.22,0006.96,0006.56
2023-09-11 18:24:00,SystemResetWarning,0838.0,5.01,000.00,028.8,024.6,000.0,037.3,029.9,32.3,-001.8,0011.17,0006.95,0006.54
2023-09-11 18:25:00,SystemResetWarning,0838.0,5.00,000.00,028.8,025.0,000.0,037.3,029.8,32.4,-002.1,0011.25,0007.00,0006.57
2023-09-11 18:26:00,SystemResetWarning,0838.1,5.00,000.00,028.7,025.5,000.0,037.2,029.9,32.2,-002.1,0011.32,0007.04,0006.59
2023-09-11 18:27:00,SystemResetWarning,0838.0,5.00,000.00,028.7,025.9,000.0,037.2,030.0,31.6,-002.1,0011.41,0007.08,0006.61
2023-09-11 18:28:00,SystemResetWarning,0838.0,5.00,000.00,028.7,026.2,000.0,037.2,030.0,32.4,-002.2,0011.47,0007.10,0006.64
2023-09-11 18:29:00,SystemResetWarning,0838.0,5.01,000.00,028.7,026.5,000.0,037.2,030.1,32.4,-002.2,0011.57,0007.12,0006.65
2023-09-11 18:30:00,SystemResetWarning,0838.0,4.99,000.00,028.7,026.7,000.0,037.2,030.1,32.3,-002.0,0011.34,0007.13,0006.65
2023-09-11 18:31:00,SystemResetWarning,0838.0,5.00,000.00,028.7,026.9,000.0,037.2,030.2,32.5,-001.9,0011.01,0007.17,0006.68
2023-09-11 18:32:00,SystemResetWarning,0837.9,5.01,000.00,028.7,027.1,000.0,037.2,030.2,33.6,-001.8,0011.03,0007.19,0006.70
2023-09-11 18:33:00,SystemResetWarning,0837.9,4.99,000.00,028.7,027.3,000.0,037.2,030.3,33.8,-001.8,0010.98,0007.17,0006.70
2023-09-11 18:34:00,SystemResetWarning,0837.9,4.99,000.00,028.7,027.4,000.0,037.2,030.3,32.7,-001.9,0010.95,0007.16,0006.73
2023-09-11 18:35:00,SystemResetWarning,0837.9,4.99,000.00,028.8,027.5,000.0,037.2,030.3,32.8,-001.9,0011.14,0007.18,0006.76
2023-09-11 18:36:00,SystemResetWarning,0837.8,5.00,000.00,028.8,027.6,000.0,037.2,030.4,33.7,-001.6,0011.02,0007.15,0006.76
2023-09-11 18:37:00,SystemResetWarning,0837.8,5.01,000.00,028.8,027.6,000.0,037.2,030.5,34.4,-001.7,0011.02,0007.16,0006.78
2023-09-11 18:38:00,SystemResetWarning,0837.8,5.01,000.00,028.9,027.7,000.0,037.2,030.5,33.6,-001.9,0011.07,0007.16,0006.80
2023-09-11 18:39:00,SystemResetWarning,0837.8,4.99,000.00,028.9,027.8,000.0,037.2,030.6,32.9,-001.9,0011.30,0007.18,0006.80
2023-09-11 18:40:00,SystemResetWarning,0837.8,4.99,000.00,028.9,027.8,000.0,037.2,030.6,31.8,-001.6,0011.42,0007.15,0006.81
2023-09-11 18:41:00,SystemResetWarning,0837.8,5.01,000.00,029.0,027.9,000.0,037.2,030.6,31.9,-001.5,0011.63,0007.18,0006.83
2023-09-11 18:42:00,SystemResetWarning,0837.8,5.01,000.00,029.0,027.9,000.0,037.3,030.6,31.8,-001.5,0011.75,0007.19,0006.84
2023-09-11 18:43:00,SystemResetWarning,0837.8,4.99,000.00,029.0,028.0,000.0,037.3,030.7,31.5,-001.4,0011.83,0007.23,0006.85
2023-09-11 18:44:00,SystemResetWarning,0837.8,4.99,000.00,029.0,028.0,000.0,037.3,030.7,30.8,-001.4,0011.95,0007.28,0006.88
2023-09-11 18:45:00,SystemResetWarning,0837.8,4.99,000.00,029.1,028.0,000.0,037.3,030.8,30.7,-001.3,0012.02,0007.30,0006.88
2023-09-11 18:46:00,SystemResetWarning,0837.8,5.00,000.00,029.1,026.7,000.0,037.3,030.5,30.6,-001.3,0011.86,0007.31,0006.88
2023-09-11 18:47:00,SystemResetWarning,0837.8,5.00,000.00,029.0,025.0,000.0,037.2,030.2,30.8,-001.3,0011.91,0007.34,0006.88
2023-09-11 18:48:00,SystemResetWarning,0837.8,5.00,000.00,028.9,024.3,000.0,037.1,030.0,30.6,-001.2,0011.97,0007.37,0006.89
2023-09-11 18:49:00,SystemResetWarning,0837.8,5.01,000.00,028.7,024.4,000.0,037.1,029.8,31.3,-000.9,0011.93,0007.36,0006.88
2023-09-11 18:50:00,SystemResetWarning,0837.8,5.00,000.00,028.6,024.8,000.0,037.1,029.7,32.3,-000.8,0011.79,0007.36,0006.89
2023-09-11 18:51:00,SystemResetWarning,0837.8,5.00,000.00,028.5,025.2,000.0,037.1,029.7,33.1,-000.9,0011.32,0007.34,0006.90
2023-09-11 18:52:00,SystemResetWarning,0837.8,5.00,000.00,028.5,025.6,000.0,037.0,029.8,32.9,-001.2,0011.17,0007.33,0006.90
2023-09-11 18:53:00,SystemResetWarning,0837.8,5.00,000.00,028.5,026.0,000.0,037.0,029.9,33.0,-001.1,0010.90,0007.36,0006.91
2023-09-11 18:54:00,SystemResetWarning,0837.8,5.00,000.00,028.5,026.3,000.0,037.0,029.9,32.8,-001.1,0011.26,0007.34,0006.93
2023-09-11 18:55:00,SystemResetWarning,0837.8,5.00,000.00,028.5,026.6,000.0,037.0,030.0,32.4,-001.1,0011.44,0007.33,0006.93
2023-09-11 18:56:00,SystemResetWarning,0837.8,5.00,000.00,028.5,026.8,000.0,037.0,030.0,32.7,-001.1,0012.34,0007.33,0006.94
2023-09-11 18:57:00,SystemResetWarning,0837.8,5.00,000.00,028.6,027.0,000.0,037.0,030.1,32.7,-001.0,0012.38,0007.34,0006.95
2023-09-11 18:58:00,SystemResetWarning,0837.8,5.00,000.00,028.6,027.2,000.0,037.0,030.1,32.1,-000.7,0012.38,0007.33,0006.97
2023-09-11 18:59:00,SystemResetWarning,0837.8,5.00,000.00,028.6,027.3,000.0,037.0,030.2,31.9,-000.8,0012.46,0007.31,0006.95
